Home > Weather > Jamestown > Past weeks

Flag for Saint Helena Past Weather in Jamestown, Saint Helena — Yesterday and Last 2 Weeks

Now
66 °F

Low clouds.


Feels Like: 66 °F
Forecast: N/A
Wind: 13 mph from Southeast

Location: Saint Helena Island

Current Time: May 27, 2016 at 4:19:52 PM

Latest Report: May 27, 2016 at 3:00 PM


Visibility: 9 mi

Pressure: 30.08 "Hg

Humidity: 84%

Dew Point: 61 °F

Location of JamestownLocation

Past Weather in Jamestown — Graph

°F

Jamestown Temperature Yesterday

Maximum temperature yesterday: 66 °F (at 2:00 PM)
Minimum temperature yesterday: 65 °F (at 5:00 AM)
Average temperature yesterday: 65 °F

High & Low Weather Summary for the Past Weeks

 TemperatureHumidityPressure
High71 °F (May 14, 1:00 PM)98% (May 17, 7:00 AM)30.22 "Hg (May 17, 7:00 AM)
Low62 °F (May 19, 7:00 AM)58% (May 14, 12:00 PM)30.01 "Hg (May 13, 3:00 PM)
Average67 °F81%30.11 "Hg
* Reported May 12 3:00 PM — May 27 3:00 PM, Jamestown, Weather by CustomWeather, © 2016

Note: Actual official high and low records may vary slightly from our data, if they occured in-between our weather recording intervals... More about our weather records

Advertising

Jamestown Weather History for the Previous 24 Hours

Scroll right to see more
 ConditionsComfort  
Time TempWeatherWind HumidityBarometerVisibility
3:00 PM
Fri, May 27
66 °FLow clouds.13 mph84%30.08 "Hg9 mi
2:00 PM66 °FLow clouds.14 mph87%30.09 "Hg9 mi
1:00 PM68 °FLow clouds.15 mph83%30.10 "Hg9 mi
12:00 PM69 °FOvercast.14 mph78%30.13 "Hg9 mi
11:00 AM67 °FOvercast.17 mph82%30.14 "Hg12 mi
10:00 AM68 °FOvercast.13 mph78%30.14 "Hg12 mi
9:00 AM66 °FLow clouds.14 mph88%30.14 "Hg11 mi
8:00 AM65 °FMild.13 mph86%30.12 "HgN/A
7:00 AM65 °FMild.15 mph88%30.11 "HgN/A
5:00 AM65 °FMild.9 mph93%30.09 "HgN/A
4:00 AM64 °FMild.15 mph92%30.09 "HgN/A
3:00 AM65 °FMild.13 mph86%30.10 "HgN/A
2:00 AM65 °FMild.17 mph90%30.10 "HgN/A
11:00 PM
Thu, May 26
65 °FMild.16 mph90%30.12 "HgN/A
10:00 PM65 °FMild.14 mph89%30.11 "HgN/A
9:00 PM65 °FMild.17 mph88%30.11 "HgN/A
8:00 PM65 °FMild.18 mph89%30.09 "HgN/A
7:00 PM65 °FMild.15 mph92%30.08 "HgN/A
6:00 PM65 °FMild.16 mph92%30.07 "HgN/A
5:00 PM65 °FMild.16 mph89%30.05 "HgN/A
4:00 PM65 °FMild.16 mph93%30.04 "HgN/A
Weather by CustomWeather, © 2016

See weather overviewHow to use our weather pages